1500850800.24,52639,20.56,74184.5,5.31,-21.77,-22.47,0,*71
1500850801.46,52640,20.56,74182.3,5.31,-21.77,-22.41,0,*79
1500850802.68,52641,20.56,74184.8,5.29,-21.63,-22.31,0,*73
1500850803.9,52642,20.56,74184.3,5.29,-21.67,-22.41,0,*73
1500850805.15,52643,20.56,74186.3,5.31,-21.63,-22.21,0,*79
1500850806.4,52644,20.56,74188.0,5.31,-21.33,-21.93,0,*71
1500850807.62,52645,20.56,74186.5,5.31,-21.13,-21.77,0,*78
1500850808.85,52646,20.56,74188.3,5.31,-21.17,-21.93,0,*75
1500850810.04,52647,20.56,74188.8,5.33,-21.13,-21.63,0,*7D
1500850811.32,52648,20.56,74188.0,5.35,-21.27,-21.87,0,*79
1500850812.55,52649,20.56,74190.8,5.33,-21.17,-21.87,0,*7D
1500850813.78,52650,20.56,74188.8,5.33,-21.17,-21.87,0,*75
1500850815.0,52651,20.56,74188.0,5.33,-21.13,-21.87,0,*70
1500850816.23,52652,20.56,74188.5,5.33,-21.17,-21.87,0,*77
1500850817.43,52653,20.56,74184.3,5.33,-21.17,-21.77,0,*79
1500850818.65,52654,20.56,74184.3,5.35,-21.13,-21.77,0,*7C
1500850819.88,52655,20.56,74184.8,5.35,-21.17,-21.73,0,*7D
1500850821.07,52656,20.56,74184.0,5.33,-21.13,-21.73,0,*7C
1500850822.29,52657,20.63,74186.5,5.35,-21.09,-21.73,0,*70
1500850823.48,52658,20.56,74180.3,5.33,-21.13,-21.77,0,*76
1500850824.68,52659,20.56,74182.5,5.33,-21.13,-21.73,0,*73
1500850825.93,52660,20.56,74180.8,5.35,-20.99,-21.63,0,*7D
1500850827.17,52661,20.56,74182.3,5.35,-20.99,-21.73,0,*7D
1500850828.36,52662,20.56,74182.5,5.33,-21.09,-21.63,0,*71
1500850829.59,52663,20.56,74182.3,5.35,-21.09,-22.03,0,*73
1500850830.81,52664,20.56,74184.3,5.33,-20.93,-21.57,0,*72
1500850832.06,52665,20.56,74180.5,5.37,-21.03,-21.67,0,*7C
1500850833.29,52666,20.56,74182.8,5.37,-20.89,-21.53,0,*7B
1500850834.51,52667,20.56,74184.3,5.37,-21.09,-21.83,0,*7E
1500850835.7,52668,20.56,74184.8,5.37,-21.13,-21.73,0,*75
1500850836.95,52669,20.63,74184.8,5.37,-21.03,-21.53,0,*77
1500850838.17,52670,20.56,74182.0,5.41,-20.83,-21.39,0,*7B
1500850839.37,52671,20.56,74182.3,5.37,-20.59,-21.09,0,*7F
1500850840.59,52672,20.56,74186.0,5.41,-20.53,-21.09,0,*77
1500850841.8,52673,20.56,74176.8,5.41,-20.43,-21.17,0,*78
1500850843.0,52674,20.56,74182.8,5.41,-20.59,-21.17,0,*74
1500850844.23,52675,20.56,74176.5,5.41,-20.89,-21.53,0,*78
1500850845.45,52676,20.56,74178.8,5.41,-21.17,-21.83,0,*70
1500850846.65,52677,20.56,74178.8,5.41,-21.17,-21.93,0,*70
1500850847.9,52678,20.56,74180.5,5.43,-21.03,-21.77,0,*72
1500850849.12,52679,20.56,74180.8,5.41,-21.23,-21.93,0,*79
1500850850.37,52680,20.56,74184.3,5.43,-21.27,-22.11,0,*70
1500850851.62,52681,20.56,74190.0,5.43,-21.27,-22.03,0,*72
1500850852.85,52682,20.56,74186.3,5.43,-21.17,-21.77,0,*72
1500850854.07,52683,20.56,74182.3,5.43,-21.17,-21.77,0,*73
1500850855.32,52684,20.56,74182.3,5.43,-21.47,-22.21,0,*71
1500850856.54,52685,20.56,74182.3,5.43,-21.63,-22.37,0,*71
1500850857.79,52686,20.56,74186.3,5.41,-21.67,-22.47,0,*73
1500850859.01,52687,20.56,74184.0,5.43,-21.77,-22.41,0,*77
1500850860.23,52688,20.56,74182.5,5.41,-21.67,-22.41,0,*7B
1500850861.49,52689,20.56,74182.8,5.41,-21.67,-22.47,0,*7C
1500850862.69,52690,20.56,74180.5,5.41,-21.93,-22.63,0,*79
1500850863.91,52691,20.56,74184.3,5.41,-21.93,-22.73,0,*79
1500850865.14,52692,20.56,74184.3,5.41,-21.83,-22.63,0,*7A
1500850866.34,52693,20.56,74180.8,5.37,-21.73,-22.53,0,*76
1500850867.57,52694,20.56,74184.8,5.37,-21.83,-22.53,0,*7E
1500850868.8,52695,20.56,74182.8,5.37,-21.73,-22.47,0,*75
1500850870.02,52696,20.56,74184.8,5.37,-21.63,-22.31,0,*76
1500850871.28,52697,20.56,74186.5,5.37,-21.83,-22.47,0,*78
1500850872.5,52698,20.56,74184.8,5.37,-21.83,-22.53,0,*72
1500850873.73,52699,20.56,74184.3,5.37,-21.83,-22.67,0,*74
1500850874.92,52700,20.56,74188.0,5.37,-22.03,-22.67,0,*7E
1500850876.15,52701,20.56,74184.8,5.37,-21.87,-22.67,0,*70
1500850877.38,52702,20.56,74186.0,5.35,-21.73,-22.53,0,*7D
1500850878.64,52703,20.56,74184.3,5.35,-21.87,-22.67,0,*70
1500850879.87,52704,20.56,74184.0,5.35,-21.93,-22.57,0,*71
1500850881.06,52705,20.56,74180.8,5.33,-21.93,-22.67,0,*75
1500850882.26,52706,20.56,74180.0,5.33,-21.63,-22.27,0,*7D
1500850883.46,52707,20.56,74182.0,5.33,-21.77,-22.57,0,*7E
1500850884.65,52708,20.56,74180.8,5.33,-22.03,-22.83,0,*78
1500850885.85,52709,20.56,74186.5,5.33,-21.77,-22.57,0,*70
1500850887.07,52710,20.63,74188.8,5.33,-21.57,-22.41,0,*7D
1500850888.29,52711,20.56,74186.0,5.33,-21.57,-22.27,0,*7C
1500850889.48,52712,20.56,74184.3,5.33,-21.43,-22.03,0,*7C
1500850890.71,52713,20.56,74186.5,5.35,-21.43,-22.07,0,*7F
1500850891.93,52714,20.63,74190.3,5.33,-21.43,-22.17,0,*7F
1500850893.16,52715,20.56,74186.8,5.33,-21.43,-22.17,0,*7E
1500850894.38,52716,20.56,74186.0,5.33,-21.57,-22.27,0,*7B
1500850895.57,52717,20.56,74186.3,5.33,-21.43,-22.07,0,*7D
1500850896.79,52718,20.56,74182.5,5.33,-21.43,-22.17,0,*73
1500850897.99,52719,20.56,74184.5,5.33,-21.47,-22.03,0,*73
1500850899.21,52720,20.56,74180.8,5.33,-21.33,-21.93,0,*70
1500850900.44,52721,20.56,74184.8,5.33,-21.27,-21.93,0,*74
1500850901.66,52722,20.56,74184.8,5.33,-21.33,-22.03,0,*78
1500850902.91,52723,20.56,74186.0,5.35,-21.33,-22.03,0,*7F
1500850904.16,52724,20.56,74184.0,5.35,-21.33,-22.03,0,*78
1500850905.39,52725,20.56,74180.5,5.35,-21.43,-22.07,0,*7A
1500850906.61,52726,20.56,74186.3,5.33,-21.33,-22.03,0,*7C
1500850907.83,52727,20.56,74182.8,5.35,-21.47,-22.03,0,*78
1500850909.06,52728,20.56,74184.3,5.35,-21.43,-22.07,0,*77
1500850910.28,52729,20.56,74186.8,5.33,-21.33,-22.03,0,*73
1500850911.47,52730,20.56,74188.0,5.33,-21.43,-22.07,0,*78
1500850912.67,52731,20.56,74180.5,5.33,-21.43,-22.27,0,*7B
1500850913.92,52732,20.56,74180.5,5.35,-21.43,-22.17,0,*7D
1500850915.15,52733,20.56,74182.0,5.33,-21.47,-22.17,0,*7E
1500850916.38,52734,20.56,74184.3,5.35,-21.47,-22.27,0,*7C
1500850917.59,52735,20.56,74184.3,5.33,-21.57,-22.37,0,*7B
1500850918.79,52736,20.56,74182.5,5.33,-21.63,-22.37,0,*7F
1500850920.04,52737,20.56,74180.0,5.35,-21.47,-22.17,0,*7C
1500850921.3,52738,20.56,74182.0,5.35,-21.47,-22.17,0,*73
1500850922.49,52739,20.56,74180.3,5.33,-21.43,-22.07,0,*71
1500850923.69,52740,20.56,74180.0,5.33,-21.43,-22.07,0,*7F
1500850924.91,52741,20.56,74176.5,5.33,-21.43,-22.17,0,*7F
1500850926.17,52742,20.56,74182.3,5.35,-21.47,-22.17,0,*7E
1500850927.36,52743,20.56,74180.0,5.33,-21.47,-22.03,0,*7C
1500850928.62,52744,20.56,74186.0,5.35,-21.33,-22.03,0,*7E
1500850929.84,52745,20.56,74180.5,5.35,-21.43,-22.07,0,*7C
1500850931.09,52746,20.56,74178.3,5.35,-21.33,-22.03,0,*7C
1500850932.34,52747,20.56,74182.8,5.35,-21.33,-22.03,0,*7D
1500850933.54,52748,20.56,74180.8,5.33,-21.17,-21.93,0,*78
1500850934.79,52749,20.56,74182.5,5.35,-21.27,-21.93,0,*7C
1500850936.05,52750,20.56,74180.5,5.35,-21.27,-21.93,0,*74
1500850937.3,52751,20.56,74182.3,5.35,-21.27,-21.93,0,*75
1500850938.55,52752,20.56,74176.5,5.35,-21.33,-22.03,0,*79
1500850939.8,52753,20.56,74178.0,5.35,-21.33,-22.03,0,*78
1500850941.06,52754,20.56,74178.3,5.35,-21.33,-22.03,0,*7F
1500850942.31,52755,20.56,74176.5,5.35,-21.17,-21.87,0,*77
1500850943.56,52756,20.56,74178.3,5.35,-21.33,-22.03,0,*7D
1500850944.81,52757,20.56,74176.3,5.35,-21.33,-22.03,0,*7C
1500850946.07,52758,20.56,74178.5,5.35,-21.27,-21.93,0,*7C
1500850947.29,52759,20.56,74180.0,5.35,-21.43,-22.07,0,*71
1500850948.51,52760,20.56,74176.8,5.37,-21.39,-21.97,0,*7E
1500850949.73,52761,20.56,74178.3,5.35,-21.43,-22.07,0,*7A
1500850950.98,52762,20.56,74182.5,5.35,-21.33,-22.03,0,*7A
1500850952.23,52763,20.56,74180.5,5.41,-21.33,-21.97,0,*76
1500850953.43,52764,20.56,74180.5,5.37,-21.39,-22.03,0,*74
1500850954.62,52765,20.56,74180.5,5.37,-21.39,-22.03,0,*75
1500850955.82,52766,20.56,74180.3,5.37,-21.39,-22.11,0,*75
1500850957.02,52767,20.56,74186.0,5.37,-21.39,-22.03,0,*77
1500850958.22,52768,20.56,74186.8,5.37,-21.39,-22.03,0,*78
1500850959.44,52769,20.56,74186.8,5.37,-21.39,-21.97,0,*77
1500850960.63,52770,20.56,74186.5,5.37,-21.39,-22.03,0,*71
1500850961.83,52771,20.56,74182.8,5.37,-21.39,-22.11,0,*73
1500850963.03,52772,20.56,74186.0,5.37,-21.43,-22.11,0,*7D
1500850964.25,52773,20.56,74184.8,5.37,-21.43,-22.21,0,*7F
1500850965.47,52774,20.56,74184.5,5.37,-21.43,-22.21,0,*78
1500850966.7,52775,20.56,74190.0,5.37,-21.53,-22.11,0,*7B
1500850967.89,52776,20.56,74184.5,5.37,-21.43,-22.03,0,*7A
1500850969.09,52777,20.56,74186.8,5.41,-21.43,-22.11,0,*79
1500850970.31,52778,20.56,74184.3,5.37,-21.57,-22.37,0,*76
1500850971.51,52779,20.56,74186.8,5.37,-21.39,-22.11,0,*7B
1500850972.73,52780,20.56,74188.5,5.37,-21.13,-21.87,0,*79
1500850973.96,52781,20.56,74186.3,5.41,-20.83,-21.39,0,*74
1500850975.15,52782,20.56,74190.0,5.37,-20.73,-21.43,0,*74
1500850976.4,52783,20.56,74186.8,5.41,-21.03,-21.67,0,*74
1500850977.62,52784,20.56,74182.0,5.41,-21.03,-21.77,0,*72
1500850978.85,52785,20.56,74186.3,5.41,-20.83,-21.47,0,*79
1500850980.07,52786,20.56,74180.3,5.37,-20.79,-21.43,0,*7A
1500850981.26,52787,20.56,74180.5,5.41,-20.69,-21.47,0,*7F
1500850982.46,52788,20.56,74186.3,5.41,-20.73,-21.47,0,*7B
1500850983.71,52789,20.56,74186.0,5.41,-20.99,-21.67,0,*7C
1500850984.93,52790,20.56,74188.5,5.41,-21.03,-21.63,0,*72
1500850986.15,52791,20.56,74180.3,5.41,-21.17,-21.83,0,*78
1500850987.4,52792,20.56,74174.8,5.41,-21.23,-21.97,0,*79
1500850988.62,52793,20.56,74174.0,5.41,-21.53,-22.41,0,*77
1500850989.84,52794,20.56,74174.0,5.41,-21.67,-22.41,0,*77
1500850991.06,52795,20.56,74176.5,5.41,-21.67,-22.41,0,*76
1500850992.25,52796,20.56,74178.8,5.41,-21.63,-22.41,0,*71
1500850993.44,52797,20.56,74182.5,5.41,-21.39,-22.27,0,*7F
1500850994.63,52798,20.56,74180.5,5.41,-21.63,-22.41,0,*7F
1500850995.89,52799,20.56,74180.8,5.41,-21.53,-22.31,0,*7A
1500850997.14,52800,20.56,74180.0,5.41,-21.67,-22.47,0,*73
1500850998.37,52801,20.56,74182.0,5.41,-21.83,-22.63,0,*7E
1500850999.59,52802,20.56,74182.8,5.37,-22.03,-22.77,0,*72
1500851000.82,52803,20.56,74180.3,5.41,-22.17,-22.93,0,*7D
1500851002.02,52804,20.56,74180.0,5.41,-22.11,-22.93,0,*7C
1500851003.25,52805,20.56,74182.8,5.37,-22.17,-22.97,0,*7E
1500851004.48,52806,20.56,74186.8,5.37,-22.21,-23.09,0,*7E
1500851005.7,52807,20.56,74182.5,5.35,-22.07,-22.97,0,*7F
1500851006.92,52808,20.56,74186.8,5.35,-22.07,-22.87,0,*71
1500851008.18,52809,20.56,74180.5,5.35,-22.17,-22.87,0,*71
1500851009.4,52810,20.56,74184.5,5.33,-22.21,-22.97,0,*7B
1500851010.63,52811,20.56,74184.5,5.35,-21.93,-22.83,0,*73
1500851011.88,52812,20.56,74186.3,5.35,-21.93,-22.73,0,*7F
1500851013.11,52813,20.56,74184.3,5.35,-21.73,-22.67,0,*75
1500851014.36,52814,20.56,74184.3,5.33,-21.87,-22.73,0,*7A
1500851015.58,52815,20.56,74184.5,5.33,-21.87,-22.67,0,*7E
1500851016.78,52816,20.56,74184.8,5.33,-21.47,-22.07,0,*77
1500851017.97,52817,20.56,74186.0,5.33,-21.73,-22.41,0,*73
1500851019.17,52818,20.56,74182.0,5.33,-21.73,-22.41,0,*7C
1500851020.4,52819,20.56,74180.3,5.35,-21.73,-22.53,0,*78
1500851021.61,52820,20.56,74184.3,5.33,-21.57,-22.37,0,*70
1500851022.83,52821,20.56,74184.0,5.33,-21.57,-22.41,0,*70
1500851024.02,52822,20.56,74180.3,5.33,-21.73,-22.41,0,*75
1500851025.22,52823,20.56,74178.8,5.33,-21.63,-22.53,0,*76
1500851026.42,52824,20.56,74182.8,5.33,-21.73,-22.53,0,*70
1500851027.61,52825,20.56,74180.0,5.33,-21.47,-22.37,0,*74
1500851028.81,52826,20.56,74182.5,5.33,-21.63,-22.53,0,*73
1500851030.01,52827,20.56,74176.5,5.33,-21.77,-22.57,0,*73
1500851031.21,52828,20.56,74176.8,5.33,-21.77,-22.67,0,*7F
1500851032.43,52829,20.56,74180.8,5.33,-21.77,-22.73,0,*7B
1500851033.68,52830,20.56,74180.5,5.33,-21.87,-22.73,0,*7C
1500851034.9,52831,20.56,74180.8,5.33,-21.57,-22.37,0,*70
1500851036.09,52832,20.56,74178.3,5.33,-21.47,-22.37,0,*72
1500851037.31,52833,20.56,74178.3,5.33,-21.57,-22.37,0,*72
1500851038.56,52834,20.56,74178.3,5.31,-21.67,-22.63,0,*75
1500851039.82,52835,20.56,74176.3,5.31,-21.93,-22.77,0,*7A
1500851041.09,52836,20.56,74180.0,5.31,-21.83,-22.73,0,*7C
1500851042.34,52837,20.56,74180.8,5.31,-21.67,-22.57,0,*71
1500851043.59,52838,20.56,74180.8,5.31,-21.53,-22.41,0,*7E
1500851044.78,52839,20.56,74176.8,5.33,-21.43,-22.07,0,*7E
1500851046.0,52840,20.56,74176.5,5.33,-21.33,-22.03,0,*73
1500851047.2,52841,20.56,74178.0,5.33,-21.43,-22.07,0,*71
1500851048.43,52842,20.56,74178.3,5.33,-21.47,-22.17,0,*77
1500851049.62,52843,20.56,74180.5,5.33,-21.47,-22.07,0,*77
1500851050.85,52844,20.56,74180.0,5.33,-21.27,-22.03,0,*72
1500851052.07,52845,20.56,74182.3,5.33,-21.27,-21.93,0,*79
1500851053.3,52846,20.56,74180.3,5.33,-21.13,-21.87,0,*78
1500851054.57,52847,20.56,74180.3,5.35,-20.99,-21.57,0,*71
1500851055.82,52848,20.56,74180.0,5.35,-20.79,-21.43,0,*75
1500851057.06,52849,20.56,74178.8,5.35,-20.53,-21.43,0,*7C
1500851058.31,52850,20.56,74174.3,5.37,-20.79,-21.57,0,*7B
1500851059.52,52851,20.56,74178.8,5.37,-20.73,-21.57,0,*70
1500851060.76,52852,20.56,74178.8,5.41,-20.59,-21.23,0,*79
1500851061.98,52853,20.56,74176.8,5.41,-20.59,-21.33,0,*79
1500851063.23,52854,20.56,74176.5,5.43,-20.99,-21.73,0,*74
1500851064.43,52855,20.56,74178.5,5.41,-20.89,-21.63,0,*77
1500851065.62,52856,20.56,74178.0,5.41,-20.89,-21.63,0,*74
1500851066.85,52857,20.56,74178.0,5.43,-21.17,-21.93,0,*7E
1500851068.07,52858,20.56,74178.3,5.41,-21.33,-22.07,0,*7B
1500851069.29,52859,20.56,74178.8,5.41,-21.63,-22.47,0,*7B
1500851070.48,52860,20.56,74178.8,5.41,-21.63,-22.41,0,*77
1500851071.68,52861,20.56,74174.3,5.41,-21.77,-22.63,0,*73
1500851072.94,52862,20.56,74182.5,5.41,-21.53,-22.31,0,*71
1500851074.14,52863,20.56,74182.5,5.41,-21.47,-22.27,0,*72
1500851075.36,52864,20.56,74186.5,5.41,-21.39,-22.17,0,*7F
1500851076.61,52865,20.56,74180.8,5.41,-21.33,-22.17,0,*74
1500851077.87,52866,20.56,74174.3,5.41,-21.53,-22.31,0,*75
1500851079.07,52867,20.56,74176.3,5.41,-21.47,-22.27,0,*76
1500851080.29,52868,20.56,74172.5,5.41,-21.77,-22.73,0,*7B
1500851081.51,52869,20.56,74174.0,5.41,-21.93,-22.73,0,*70
1500851082.73,52870,20.56,74178.5,5.37,-21.97,-22.83,0,*72
1500851083.96,52871,20.56,74178.0,5.37,-21.87,-22.63,0,*7C
1500851085.21,52872,20.56,74176.5,5.41,-21.97,-22.77,0,*7A
1500851086.45,52873,20.56,74178.3,5.41,-21.97,-22.73,0,*7F
1500851087.67,52874,20.56,74180.0,5.37,-21.97,-22.83,0,*76
1500851088.87,52875,20.56,74178.0,5.37,-22.03,-22.93,0,*78
1500851090.13,52876,20.56,74180.8,5.35,-22.17,-22.97,0,*78
1500851091.36,52877,20.56,74180.8,5.33,-22.17,-22.97,0,*7F
1500851092.62,52878,20.56,74180.8,5.35,-22.21,-22.97,0,*73
1500851093.89,52879,20.56,74182.8,5.35,-22.21,-23.03,0,*7E
1500851095.12,52880,20.56,74182.8,5.33,-22.21,-22.97,0,*72
1500851096.37,52881,20.56,74182.5,5.33,-22.21,-23.03,0,*7F
1500851097.63,52882,20.56,74182.8,5.35,-22.17,-22.97,0,*73
1500851098.82,52883,20.56,74180.3,5.33,-22.07,-22.83,0,*70
1500851100.01,52884,20.56,74176.8,5.33,-22.07,-22.83,0,*77
1500851101.24,52885,20.56,74178.3,5.33,-22.17,-22.87,0,*73
1500851102.46,52886,20.56,74180.0,5.31,-22.11,-22.87,0,*74
1500851103.68,52887,20.56,74178.8,5.29,-21.83,-22.63,0,*7E
1500851104.95,52888,20.56,74178.3,5.31,-21.83,-22.73,0,*79
1500851106.18,52889,20.56,74180.3,5.31,-21.77,-22.57,0,*75
1500851107.43,52890,20.56,74178.3,5.31,-21.93,-22.73,0,*71
1500851108.7,52891,20.56,74178.5,5.31,-21.67,-22.73,0,*7B
1500851109.96,52892,20.56,74180.3,5.29,-21.53,-22.47,0,*71
1500851111.18,52893,20.56,74180.3,5.31,-21.63,-22.57,0,*7B
1500851112.43,52894,20.56,74182.8,5.31,-21.39,-22.31,0,*73
1500851113.71,52895,20.56,74184.5,5.31,-20.99,-21.83,0,*73
1500851114.96,52896,20.56,74182.0,5.31,-21.23,-22.07,0,*7F
1500851116.21,52897,20.56,74180.5,5.31,-21.23,-21.93,0,*70
1500851117.44,52898,20.56,74180.3,5.31,-21.17,-21.93,0,*78
1500851118.65,52899,20.56,74180.3,5.33,-20.93,-21.57,0,*7E
1500851119.9,52900,20.56,74182.3,5.35,-20.93,-21.57,0,*79
1500851121.12,52901,20.56,74182.8,5.35,-21.43,-22.03,0,*76
1500851122.35,52902,20.56,74178.8,5.35,-21.47,-22.27,0,*77
1500851123.58,52903,20.56,74182.5,5.35,-21.09,-21.77,0,*7A
1500851124.8,52904,20.56,74182.5,5.35,-21.43,-22.07,0,*77
1500851125.99,52905,20.56,74180.0,5.33,-21.43,-22.07,0,*70
1500851127.22,52906,20.56,74182.5,5.35,-21.47,-22.27,0,*73
1500851128.42,52907,20.56,74180.5,5.33,-21.47,-22.07,0,*76
1500851129.66,52908,20.56,74182.3,5.37,-21.27,-21.97,0,*71
1500851130.91,52909,20.56,74180.0,5.35,-21.57,-22.27,0,*7D
1500851132.16,52910,20.56,74180.5,5.35,-21.57,-22.41,0,*75
1500851133.35,52911,20.56,74182.0,5.33,-21.63,-22.41,0,*75
1500851134.54,52912,20.56,74182.8,5.33,-21.73,-22.41,0,*77
1500851135.79,52913,20.56,74182.0,5.35,-21.57,-22.27,0,*76
1500851137.01,52914,20.56,74182.0,5.35,-21.63,-22.41,0,*76
1500851138.24,52915,20.56,74180.8,5.35,-21.73,-22.53,0,*75
1500851139.5,52916,20.56,74178.8,5.35,-21.87,-22.57,0,*79
1500851140.72,52917,20.56,74176.5,5.35,-21.43,-22.07,0,*75
1500851141.94,52918,20.56,74178.8,5.33,-21.57,-22.41,0,*7B
1500851143.15,52919,20.56,74176.0,5.35,-21.63,-22.41,0,*7B
1500851144.37,52920,20.56,74174.3,5.33,-21.57,-22.37,0,*71
1500851145.6,52921,20.56,74176.5,5.35,-21.43,-22.07,0,*70
1500851146.82,52922,20.56,74176.0,5.35,-21.47,-22.37,0,*74
1500851148.04,52923,20.56,74178.8,5.33,-21.57,-22.27,0,*73
1500851149.26,52924,20.56,74182.0,5.35,-21.63,-22.37,0,*74
1500851150.46,52925,20.56,74180.5,5.33,-21.73,-22.41,0,*73
1500851151.68,52926,20.56,74180.0,5.35,-21.63,-22.41,0,*77
1500851152.87,52927,20.56,74180.0,5.33,-21.63,-22.41,0,*70
1500851154.08,52928,20.56,74180.5,5.33,-21.57,-22.37,0,*79
1500851155.31,52929,20.56,74176.0,5.33,-21.57,-22.27,0,*79
1500851156.5,52930,20.56,74176.0,5.33,-21.47,-22.27,0,*70
1500851157.73,52931,20.56,74178.3,5.33,-21.43,-22.17,0,*76
1500851158.98,52932,20.56,74178.5,5.35,-21.57,-22.27,0,*75
1500851160.21,52933,20.56,74174.5,5.35,-21.47,-22.07,0,*77
1500851161.43,52934,20.56,74178.3,5.35,-21.47,-22.07,0,*70
1500851162.68,52935,20.56,74178.5,5.35,-21.33,-22.07,0,*72
1500851163.88,52936,20.56,74176.5,5.33,-21.43,-22.03,0,*74
1500851165.1,52937,20.56,74176.8,5.33,-21.33,-22.03,0,*72
1500851166.35,52938,20.56,74176.8,5.35,-21.27,-21.93,0,*74
1500851167.57,52939,20.56,74176.5,5.35,-21.43,-22.07,0,*79
1500851168.83,52940,20.56,74168.8,5.35,-21.43,-22.17,0,*76
1500851170.02,52941,20.56,74172.0,5.33,-21.43,-22.07,0,*70
1500851171.27,52942,20.56,74168.0,5.35,-21.43,-22.17,0,*74
1500851172.53,52943,20.56,74168.5,5.35,-21.17,-21.87,0,*7E
1500851173.76,52944,20.56,74172.0,5.35,-21.13,-21.77,0,*72
1500851175.01,52945,20.56,74172.5,5.35,-21.33,-22.07,0,*75
1500851176.23,52946,20.56,74174.5,5.37,-20.93,-21.83,0,*70
1500851177.46,52947,20.56,74170.8,5.37,-21.39,-21.87,0,*74
1500851178.66,52948,20.56,74174.3,5.37,-21.39,-22.11,0,*77
1500851179.88,52949,20.56,74172.5,5.41,-21.33,-22.07,0,*7A
1500851181.1,52950,20.56,74174.3,5.41,-21.17,-21.83,0,*7B
1500851182.32,52951,20.56,74172.0,5.41,-21.39,-21.97,0,*73
1500851183.54,52952,20.56,74176.3,5.37,-21.39,-21.97,0,*71
1500851184.76,52953,20.56,74172.5,5.41,-21.39,-22.17,0,*7A
1500851185.98,52954,20.56,74172.5,5.37,-21.43,-22.21,0,*74
1500851187.18,52955,20.56,74174.8,5.37,-21.43,-22.03,0,*75
1500851188.4,52956,20.56,74174.0,5.37,-21.39,-21.97,0,*75
1500851189.65,52957,20.56,74174.3,5.37,-21.23,-21.87,0,*7E
1500851190.9,52958,20.56,74176.3,5.37,-21.27,-21.97,0,*74
1500851192.12,52959,20.56,74180.0,5.37,-21.39,-21.97,0,*7A
1500851193.34,52960,20.56,74176.8,5.37,-21.39,-21.97,0,*70
1500851194.54,52961,20.56,74178.3,5.37,-21.39,-22.03,0,*7F
1500851195.74,52962,20.56,74176.5,5.37,-21.39,-22.03,0,*7C
1500851196.96,52963,20.56,74176.3,5.37,-21.39,-21.97,0,*73
1500851198.2,52964,20.56,74176.0,5.41,-21.33,-21.97,0,*7F
1500851199.42,52965,20.56,74182.0,5.41,-21.17,-21.83,0,*7D
1500851200.62,52966,20.56,74178.3,5.37,-21.39,-22.03,0,*78
1500851201.85,52967,20.56,74182.8,5.37,-21.53,-22.37,0,*72
1500851203.1,52968,20.56,74180.3,5.37,-21.57,-22.47,0,*7E
1500851204.36,52969,20.56,74176.5,5.37,-21.67,-22.47,0,*7C
1500851205.59,52970,20.56,74176.0,5.41,-21.83,-22.63,0,*79
1500851206.79,52971,20.56,74176.8,5.37,-21.73,-22.53,0,*75
1500851208.01,52972,20.56,74180.0,5.37,-21.43,-22.21,0,*70
1500851209.24,52973,20.56,74178.3,5.35,-21.77,-22.53,0,*71
1500851210.49,52974,20.56,74178.5,5.35,-21.87,-22.53,0,*79
1500851211.69,52975,20.56,74178.5,5.33,-21.77,-22.53,0,*71
1500851212.92,52976,20.56,74180.0,5.35,-21.73,-22.41,0,*73
1500851214.14,52977,20.56,74180.5,5.37,-21.57,-22.37,0,*77
1500851215.37,52978,20.56,74178.3,5.35,-21.77,-22.57,0,*7E
1500851216.59,52979,20.56,74178.8,5.33,-21.87,-22.57,0,*76
1500851217.84,52980,20.56,74178.5,5.35,-22.03,-22.73,0,*7F
1500851219.08,52981,20.56,74182.0,5.35,-22.03,-22.73,0,*7E
1500851220.31,52982,20.5,74172.0,5.35,-22.03,-22.87,0,*76
1500851221.53,52983,20.56,74176.0,5.35,-22.03,-22.83,0,*73
1500851222.76,52984,20.56,74176.0,5.33,-22.17,-22.83,0,*77
1500851224.02,52985,20.56,74178.8,5.35,-22.17,-22.97,0,*75
1500851225.22,52986,20.56,74172.0,5.33,-22.27,-22.97,0,*73
1500851226.47,52987,20.56,74178.0,5.31,-22.27,-23.03,0,*7C
1500851227.69,52988,20.56,74174.8,5.31,-22.11,-22.93,0,*7E
1500851228.91,52989,20.56,74176.5,5.31,-22.07,-22.87,0,*7D
1500851230.13,52990,20.56,74180.0,5.31,-22.11,-22.87,0,*72
1500851231.36,52991,20.56,74182.8,5.29,-22.21,-22.93,0,*7C
1500851232.58,52992,20.5,74176.0,5.29,-22.27,-23.03,0,*71
1500851233.83,52993,20.56,74182.5,5.31,-22.27,-23.03,0,*79
1500851235.05,52994,20.56,74180.8,5.29,-22.27,-23.03,0,*77
1500851236.28,52995,20.56,74180.0,5.29,-22.31,-23.09,0,*7B
1500851237.53,52996,20.56,74182.0,5.29,-22.31,-23.03,0,*72
1500851238.75,52997,20.56,74180.8,5.29,-22.21,-22.93,0,*7A
1500851239.99,52998,20.56,74178.8,5.25,-22.17,-22.93,0,*7C
1500851241.24,52999,20.56,74180.5,5.25,-21.97,-22.77,0,*7C
1500851242.49,53000,20.56,74180.8,5.25,-21.87,-22.77,0,*75
1500851243.72,53001,20.56,74182.8,5.25,-21.87,-22.63,0,*71
1500851244.95,53002,20.56,74182.5,5.25,-21.97,-22.83,0,*7D
1500851246.2,53003,20.56,74186.5,5.25,-21.87,-22.77,0,*76
1500851247.45,53004,20.56,74186.0,5.23,-21.87,-22.73,0,*73
1500851248.67,53005,20.56,74186.5,5.23,-22.03,-22.73,0,*7D
1500851249.85,53006,20.56,74186.5,5.23,-22.07,-22.87,0,*71
1500851251.05,53007,20.56,74184.5,5.23,-22.03,-22.83,0,*70
1500851252.27,53008,20.56,74182.3,5.23,-22.17,-22.87,0,*7E
1500851253.5,53009,20.56,74182.0,5.23,-22.17,-22.97,0,*7E
1500851254.74,53010,20.56,74182.3,5.25,-22.17,-22.97,0,*70
1500851255.98,53011,20.56,74182.0,5.23,-22.31,-23.03,0,*7F
1500851257.23,53012,20.56,74182.0,5.23,-22.21,-23.03,0,*7D
1500851258.48,53013,20.56,74184.3,5.23,-22.31,-23.03,0,*7D
1500851259.71,53014,20.56,74184.0,5.19,-22.37,-23.03,0,*75
1500851260.92,53015,20.56,74182.5,5.21,-22.07,-22.67,0,*7F
1500851262.17,53016,20.56,74180.8,5.21,-22.17,-22.97,0,*72
1500851263.42,53017,20.56,74180.0,5.21,-22.37,-23.03,0,*7D
1500851264.68,53018,20.56,74180.5,5.19,-22.47,-23.23,0,*7C
1500851265.91,53019,20.56,74182.8,5.19,-22.21,-23.09,0,*75
1500851267.12,53020,20.56,74176.8,5.19,-22.37,-23.09,0,*78
1500851268.32,53021,20.56,74180.8,5.19,-22.41,-23.09,0,*78
1500851269.57,53022,20.56,74178.5,5.19,-22.47,-23.19,0,*7C
1500851270.85,53023,20.56,74180.0,5.17,-22.47,-23.19,0,*73
1500851272.1,53024,20.56,74182.0,5.15,-22.47,-23.29,0,*75
1500851273.33,53025,20.56,74180.5,5.17,-22.37,-23.09,0,*73
1500851274.56,53026,20.56,74180.5,5.15,-22.31,-23.09,0,*74
1500851275.78,53027,20.56,74180.3,5.17,-22.27,-22.87,0,*77
1500851277.01,53028,20.56,74182.8,5.17,-22.37,-23.09,0,*7E
1500851278.23,53029,20.56,74180.8,5.15,-22.31,-23.13,0,*70
1500851279.43,53030,20.56,74182.5,5.15,-22.41,-23.13,0,*7F
1500851280.68,53031,20.56,74182.3,5.17,-22.11,-23.03,0,*78
1500851281.91,53032,20.56,74182.0,5.15,-22.31,-23.13,0,*7A
1500851283.13,53033,20.56,74184.5,5.15,-21.97,-22.67,0,*76
1500851284.32,53034,20.5,74176.0,5.15,-22.03,-22.83,0,*75
1500851285.56,53035,20.56,74184.5,5.15,-22.17,-22.97,0,*74
1500851286.8,53036,20.56,74186.3,5.13,-22.03,-22.77,0,*7A
1500851288.04,53037,20.56,74184.8,5.13,-21.97,-22.83,0,*7E
1500851289.26,53038,20.56,74190.0,5.13,-22.03,-22.93,0,*7E
1500851290.52,53039,20.56,74186.8,5.15,-21.53,-22.17,0,*73
1500851291.75,53040,20.56,74186.5,5.15,-21.53,-22.11,0,*7B
1500851292.98,53041,20.56,74184.8,5.15,-21.57,-22.27,0,*7B
1500851294.25,53042,20.56,74180.3,5.17,-21.53,-22.21,0,*78
1500851295.48,53043,20.56,74180.8,5.17,-21.63,-22.27,0,*7C
1500851296.73,53044,20.56,74180.8,5.15,-21.67,-22.31,0,*7A
1500851297.96,53045,20.56,74180.0,5.15,-21.53,-22.27,0,*7B